EXS408K LGSK-EGSS

Flight info

Callsign EXS408K
Flight time N/A
Altitude 38000
Route IBIDI UL617 MAKED DCT LONTA UL608 DOLEV DCT PODOB DCT TIMID DCT MONID DCT TUPUS DCT KOTOR DCT EPODO DCT KANIN DCT VEKEN DCT UMVEG DCT KPT DCT VEKIR DCT ADENU L608 LIRSU DCT SPI DCT NIK DCT KOZUF DCT IMPOH DCT SASKI L608 SUMUM Y6 TOSVA
Aircraft B738/M-SDE2E3FGHIRWXY/LB1

Departure

Time 2026-05-06 13:38
Airport Skiathos Island National Airport (LGSK)

Arrival

Time N/A
Airport London Stansted Airport (EGSS)
Time Latitude Longitude Altitude Speed Heading
2026-05-06 12:46 39.17801 23.50193 38 ft 0 kts 289°
2026-05-06 13:29 39.17796 23.50209 38 ft 3 kts 285°
2026-05-06 13:29 39.17792 23.50234 36 ft 3 kts 275°
2026-05-06 13:29 39.17792 23.50260 34 ft 3 kts 258°
2026-05-06 13:30 39.17798 23.50282 35 ft 3 kts 223°
2026-05-06 13:30 39.17806 23.50290 36 ft 0 kts 199°
2026-05-06 13:32 39.17805 23.50289 36 ft 1 kts 199°
2026-05-06 13:32 39.17777 23.50278 36 ft 9 kts 199°
2026-05-06 13:33 39.17684 23.50247 38 ft 17 kts 196°
2026-05-06 13:33 39.17590 23.50215 35 ft 10 kts 155°
2026-05-06 13:33 39.17540 23.50274 39 ft 10 kts 152°
2026-05-06 13:33 39.17470 23.50260 38 ft 12 kts 198°
2026-05-06 13:34 39.17368 23.50215 33 ft 20 kts 198°
2026-05-06 13:34 39.17207 23.50142 22 ft 28 kts 198°
2026-05-06 13:34 39.17063 23.50081 15 ft 13 kts 183°
2026-05-06 13:34 39.17021 23.50067 10 ft 4 kts 294°
2026-05-06 13:35 39.17048 23.50073 13 ft 4 kts 20°
2026-05-06 13:35 39.17051 23.50074 13 ft 0 kts 19°
2026-05-06 13:37 39.17272 23.50173 30 ft 74 kts 19°
2026-05-06 13:38 39.18001 23.50497 44 ft 146 kts 19°
2026-05-06 13:38 39.19082 23.50975 496 ft 175 kts 20°
2026-05-06 13:38 39.20230 23.51525 1423 ft 178 kts 20°
2026-05-06 13:38 39.21424 23.52070 2111 ft 190 kts 19°
2026-05-06 13:39 39.22724 23.52628 2737 ft 202 kts 18°
2026-05-06 13:39 39.24127 23.53229 3124 ft 223 kts 18°
2026-05-06 13:39 39.25646 23.53788 3665 ft 231 kts
2026-05-06 13:39 39.27285 23.53524 4033 ft 251 kts 347°
2026-05-06 13:40 39.29072 23.53049 4533 ft 268 kts 348°
2026-05-06 13:40 39.30917 23.52590 5351 ft 271 kts 348°
2026-05-06 13:40 39.32783 23.52150 6222 ft 274 kts 349°
2026-05-06 13:40 39.34676 23.51723 7032 ft 278 kts 349°
2026-05-06 13:41 39.36586 23.51305 7858 ft 280 kts 349°
2026-05-06 13:41 39.38511 23.50888 8692 ft 282 kts 349°
2026-05-06 13:41 39.40457 23.50468 9505 ft 285 kts 349°
2026-05-06 13:41 39.42413 23.49972 10282 ft 288 kts 343°
2026-05-06 13:42 39.44362 23.49115 10592 ft 308 kts 338°
2026-05-06 13:42 39.46399 23.48085 10798 ft 331 kts 338°
2026-05-06 13:42 39.48597 23.46957 11202 ft 344 kts 338°
2026-05-06 13:42 39.50839 23.45820 11920 ft 347 kts 338°
2026-05-06 13:43 39.53094 23.44694 12748 ft 347 kts 338°
2026-05-06 13:43 39.55355 23.43577 13560 ft 349 kts 338°
2026-05-06 13:43 39.57630 23.42461 14261 ft 352 kts 338°
2026-05-06 13:43 39.59938 23.41332 14872 ft 356 kts 338°
2026-05-06 13:44 39.62266 23.40196 15534 ft 358 kts 338°
2026-05-06 13:44 39.64603 23.39055 16208 ft 361 kts 338°
2026-05-06 13:44 39.66961 23.37902 16856 ft 363 kts 338°
2026-05-06 13:44 39.69335 23.36742 17497 ft 366 kts 338°
2026-05-06 13:45 39.71729 23.35570 18127 ft 369 kts 338°
2026-05-06 13:45 39.76575 23.33208 19280 ft 373 kts 338°
2026-05-06 13:45 39.79012 23.32028 19873 ft 375 kts 338°
2026-05-06 13:46 39.81464 23.30839 20442 ft 377 kts 338°
2026-05-06 13:46 39.83924 23.29644 20975 ft 379 kts 338°
2026-05-06 13:46 39.86398 23.28442 21522 ft 380 kts 338°
2026-05-06 13:46 39.88884 23.27232 22046 ft 382 kts 338°
2026-05-06 13:47 39.90536 23.26428 22391 ft 384 kts 337°
2026-05-06 13:47 39.93044 23.25201 22895 ft 386 kts 337°
2026-05-06 13:47 39.95566 23.23961 23404 ft 388 kts 337°
2026-05-06 13:47 39.98100 23.22713 23845 ft 390 kts 337°
2026-05-06 13:48 40.00647 23.21458 24229 ft 393 kts 337°
2026-05-06 13:48 40.03213 23.20192 24608 ft 396 kts 337°
2026-05-06 13:48 40.05795 23.18919 24985 ft 398 kts 337°
2026-05-06 13:48 40.08395 23.17636 25364 ft 400 kts 337°
2026-05-06 13:49 40.11006 23.16347 25741 ft 402 kts 337°
2026-05-06 13:49 40.13631 23.15049 26100 ft 405 kts 337°
2026-05-06 13:49 40.16274 23.13740 26449 ft 407 kts 337°
2026-05-06 13:49 40.18928 23.12426 26793 ft 409 kts 336°
2026-05-06 13:50 40.21602 23.11100 27137 ft 412 kts 336°
2026-05-06 13:50 40.24289 23.09766 27428 ft 415 kts 336°
2026-05-06 13:50 40.27000 23.08419 27665 ft 419 kts 336°
2026-05-06 13:50 40.29737 23.07059 27989 ft 421 kts 336°
2026-05-06 13:51 40.32482 23.05693 28334 ft 423 kts 336°
2026-05-06 13:51 40.35237 23.04322 28656 ft 425 kts 336°
2026-05-06 13:51 40.38007 23.02941 28945 ft 427 kts 336°
2026-05-06 13:51 40.40794 23.01551 29239 ft 430 kts 336°
2026-05-06 13:52 40.43594 23.00153 29538 ft 432 kts 336°
2026-05-06 13:52 40.46384 22.98698 29888 ft 431 kts 333°
2026-05-06 13:52 40.49058 22.96944 30307 ft 428 kts 330°
2026-05-06 13:52 40.51673 22.95101 30717 ft 425 kts 329°
2026-05-06 13:53 40.54263 22.93240 31061 ft 425 kts 329°
2026-05-06 13:53 40.56857 22.91376 31375 ft 425 kts 329°
2026-05-06 13:53 40.59455 22.89522 31686 ft 424 kts 329°
2026-05-06 13:53 40.62050 22.87683 32035 ft 423 kts 329°
2026-05-06 13:54 40.64639 22.85857 32375 ft 422 kts 329°
2026-05-06 13:54 40.67234 22.84032 32677 ft 422 kts 329°
2026-05-06 13:54 40.69823 22.82213 33000 ft 422 kts 329°
2026-05-06 13:54 40.72407 22.80396 33328 ft 421 kts 329°
2026-05-06 13:55 40.74987 22.78580 33663 ft 420 kts 329°
2026-05-06 13:55 40.77558 22.76769 33976 ft 419 kts 329°
2026-05-06 13:55 40.80138 22.74949 34094 ft 422 kts 329°
2026-05-06 13:55 40.82735 22.73116 34315 ft 423 kts 329°
2026-05-06 13:56 40.85323 22.71288 34622 ft 421 kts 329°
2026-05-06 13:56 40.87898 22.69468 34920 ft 419 kts 329°
2026-05-06 13:56 40.90465 22.67651 35143 ft 419 kts 329°
2026-05-06 13:56 40.93002 22.65854 35346 ft 420 kts 329°
2026-05-06 13:57 40.95575 22.64030 35627 ft 418 kts 329°
2026-05-06 13:57 40.98124 22.62221 35955 ft 415 kts 329°
2026-05-06 13:57 41.00671 22.60412 36161 ft 415 kts 329°
2026-05-06 13:57 41.03222 22.58597 36320 ft 416 kts 329°
2026-05-06 13:58 41.05771 22.56783 36524 ft 416 kts 329°
2026-05-06 13:58 41.08320 22.54968 36768 ft 415 kts 329°
2026-05-06 13:58 41.10897 22.53132 36976 ft 415 kts 329°
2026-05-06 13:58 41.13359 22.51250 37156 ft 414 kts 323°
2026-05-06 13:59 41.15634 22.48931 37353 ft 412 kts 320°
2026-05-06 13:59 41.17861 22.46533 37565 ft 411 kts 319°
2026-05-06 13:59 41.20078 22.44130 37734 ft 412 kts 319°
2026-05-06 13:59 41.22305 22.41720 37854 ft 413 kts 319°
2026-05-06 14:00 41.24533 22.39315 38001 ft 413 kts 319°
2026-05-06 14:00 41.26764 22.36914 38003 ft 413 kts 319°
2026-05-06 14:00 41.31227 22.32123 38018 ft 412 kts 319°
2026-05-06 14:01 41.35684 22.27338 38027 ft 412 kts 319°
2026-05-06 14:01 41.40148 22.22537 38020 ft 413 kts 319°
2026-05-06 14:02 41.44618 22.17721 38016 ft 413 kts 319°
2026-05-06 14:02 41.49087 22.12898 38007 ft 414 kts 319°
2026-05-06 14:03 41.53561 22.08059 38010 ft 414 kts 319°
2026-05-06 14:03 41.58035 22.03213 38004 ft 414 kts 319°
2026-05-06 14:04 41.62515 21.98350 37998 ft 415 kts 319°
2026-05-06 14:04 41.66994 21.93480 37995 ft 415 kts 319°
2026-05-06 14:05 41.71476 21.88597 38000 ft 416 kts 319°
2026-05-06 14:05 41.75961 21.83702 37985 ft 416 kts 319°
2026-05-06 14:06 41.80442 21.78803 37980 ft 416 kts 318°
2026-05-06 14:06 41.84919 21.73898 37973 ft 415 kts 318°
2026-05-06 14:07 41.89396 21.68984 37968 ft 416 kts 318°
2026-05-06 14:07 41.93875 21.64059 37970 ft 416 kts 318°
2026-05-06 14:08 41.98349 21.59129 37969 ft 416 kts 318°
2026-05-06 14:08 42.02830 21.54183 38003 ft 416 kts 318°
2026-05-06 14:09 42.07306 21.49233 38012 ft 417 kts 318°
2026-05-06 14:09 42.11780 21.44276 38009 ft 417 kts 318°
2026-05-06 14:10 42.16219 21.39247 38027 ft 416 kts 313°
2026-05-06 14:10 42.20042 21.33411 38020 ft 415 kts 308°
2026-05-06 14:11 42.23732 21.27418 38008 ft 415 kts 308°
2026-05-06 14:11 42.27444 21.21438 38017 ft 415 kts 308°
2026-05-06 14:12 42.31139 21.15535 38019 ft 414 kts 308°
2026-05-06 14:12 42.34858 21.09604 38027 ft 413 kts 308°
2026-05-06 14:13 42.38566 21.03683 38028 ft 412 kts 308°
2026-05-06 14:13 42.42267 20.97760 38018 ft 413 kts 308°
2026-05-06 14:14 42.45969 20.91823 38030 ft 412 kts 308°
2026-05-06 14:14 42.49668 20.85877 38031 ft 413 kts 308°
2026-05-06 14:15 42.53371 20.79914 38022 ft 414 kts 308°
2026-05-06 14:15 42.57080 20.73929 38027 ft 414 kts 307°
2026-05-06 14:16 42.60780 20.67936 38023 ft 415 kts 308°
2026-05-06 14:16 42.64497 20.61921 38022 ft 416 kts 308°
2026-05-06 14:17 42.68216 20.55886 38013 ft 417 kts 308°
2026-05-06 14:17 42.71934 20.49836 38014 ft 417 kts 308°
2026-05-06 14:18 42.75659 20.43763 38035 ft 420 kts 307°
2026-05-06 14:18 42.79434 20.37596 38030 ft 427 kts 307°
2026-05-06 14:19 42.83261 20.31331 38003 ft 433 kts 307°
2026-05-06 14:19 42.87131 20.24984 38005 ft 436 kts 307°
2026-05-06 14:20 42.90985 20.18648 37999 ft 437 kts 307°
2026-05-06 14:20 42.94866 20.12253 38002 ft 438 kts 307°
2026-05-06 14:21 42.98750 20.05840 37996 ft 438 kts 307°
2026-05-06 14:21 43.02627 19.99423 37999 ft 438 kts 307°
2026-05-06 14:22 43.06498 19.93003 37996 ft 438 kts 307°
2026-05-06 14:22 43.10364 19.86576 37987 ft 437 kts 307°
2026-05-06 14:23 43.14219 19.80154 37991 ft 436 kts 307°
2026-05-06 14:23 43.18068 19.73727 37987 ft 436 kts 307°
2026-05-06 14:24 43.21904 19.67308 37989 ft 435 kts 306°
2026-05-06 14:24 43.25730 19.60893 38005 ft 434 kts 306°
2026-05-06 14:25 43.29547 19.54477 38002 ft 434 kts 306°
2026-05-06 14:25 43.33365 19.48045 37989 ft 435 kts 306°
2026-05-06 14:26 43.37181 19.41604 37998 ft 435 kts 306°
2026-05-06 14:26 43.41002 19.35138 37997 ft 436 kts 306°
2026-05-06 14:27 43.44823 19.28651 37970 ft 436 kts 306°
2026-05-06 14:27 43.48627 19.22185 37993 ft 433 kts 306°
2026-05-06 14:28 43.52401 19.15762 37977 ft 434 kts 306°
2026-05-06 14:28 43.56230 19.09304 37975 ft 436 kts 307°
2026-05-06 14:29 43.60106 19.02861 37978 ft 437 kts 307°
2026-05-06 14:29 43.63980 18.96405 37982 ft 436 kts 306°
2026-05-06 14:30 43.67838 18.89949 37979 ft 436 kts 306°
2026-05-06 14:30 43.71696 18.83472 37989 ft 437 kts 306°
2026-05-06 14:31 43.75558 18.76971 37979 ft 438 kts 306°
2026-05-06 14:31 43.79427 18.70445 37957 ft 439 kts 306°
2026-05-06 14:32 43.83294 18.63908 37971 ft 439 kts 306°
2026-05-06 14:32 43.86517 18.58449 37962 ft 441 kts 306°
2026-05-06 14:33 43.90417 18.51829 37961 ft 441 kts 306°
2026-05-06 14:33 43.94293 18.45235 37967 ft 441 kts 306°
2026-05-06 14:34 43.98137 18.38682 37954 ft 440 kts 306°
2026-05-06 14:34 44.01997 18.32085 37977 ft 440 kts 306°
2026-05-06 14:35 44.05860 18.25470 37960 ft 441 kts 306°
2026-05-06 14:35 44.09468 18.18614 37945 ft 438 kts 300°
2026-05-06 14:36 44.12799 18.11523 37953 ft 437 kts 300°
2026-05-06 14:36 44.16118 18.04428 37931 ft 438 kts 300°
2026-05-06 14:37 44.19473 17.97345 37931 ft 438 kts 300°
2026-05-06 14:37 44.22845 17.90261 37930 ft 439 kts 300°
2026-05-06 14:38 44.26217 17.83174 37939 ft 438 kts 300°
2026-05-06 14:38 44.29583 17.76082 37944 ft 439 kts 299°
2026-05-06 14:39 44.32949 17.68969 37930 ft 439 kts 299°
2026-05-06 14:39 44.36297 17.61844 37940 ft 439 kts 299°
2026-05-06 14:40 44.39656 17.54705 37945 ft 439 kts 299°
2026-05-06 14:40 44.43015 17.47561 37946 ft 440 kts 299°
2026-05-06 14:41 44.46373 17.40400 37937 ft 441 kts 298°
2026-05-06 14:41 44.49730 17.33218 37941 ft 440 kts 298°
2026-05-06 14:42 44.53074 17.26050 37946 ft 439 kts 298°
2026-05-06 14:42 44.56410 17.18879 37930 ft 439 kts 298°
2026-05-06 14:43 44.59742 17.11698 37922 ft 440 kts 298°
2026-05-06 14:43 44.63073 17.04499 37916 ft 440 kts 298°
2026-05-06 14:44 44.66402 16.97285 37922 ft 440 kts 298°
2026-05-06 14:45 44.71395 16.86434 37962 ft 441 kts 298°
2026-05-06 14:45 44.74725 16.79174 37935 ft 442 kts 298°
2026-05-06 14:46 44.78050 16.71907 37923 ft 442 kts 298°
2026-05-06 14:46 44.81371 16.64633 37920 ft 441 kts 298°
2026-05-06 14:47 44.84682 16.57361 37931 ft 441 kts 298°
2026-05-06 14:47 44.87991 16.50073 37939 ft 441 kts 297°
2026-05-06 14:48 44.91296 16.42781 37935 ft 441 kts 297°
2026-05-06 14:48 44.94594 16.35487 37931 ft 441 kts 297°
2026-05-06 14:49 44.98018 16.28354 37912 ft 445 kts 304°
2026-05-06 14:49 45.02112 16.21681 37934 ft 448 kts 306°
2026-05-06 14:50 45.06219 16.15119 37934 ft 449 kts 306°
2026-05-06 14:50 45.10340 16.08404 37927 ft 449 kts 305°
2026-05-06 14:51 45.14388 16.01736 37927 ft 450 kts 305°
2026-05-06 14:51 45.18461 15.95014 37958 ft 450 kts 305°
2026-05-06 14:52 45.22555 15.88281 37929 ft 452 kts 307°
2026-05-06 14:52 45.26972 15.81810 37923 ft 454 kts 310°
2026-05-06 14:53 45.31414 15.75530 37933 ft 453 kts 309°
2026-05-06 14:53 45.35848 15.69165 37923 ft 453 kts 309°
2026-05-06 14:54 45.40266 15.62764 37917 ft 453 kts 309°
2026-05-06 14:54 45.44631 15.56314 37917 ft 450 kts 304°
2026-05-06 14:55 45.48388 15.49260 37931 ft 446 kts 300°
2026-05-06 14:55 45.51990 15.42066 37925 ft 445 kts 300°
2026-05-06 14:56 45.55613 15.34900 37921 ft 446 kts 301°
2026-05-06 14:56 45.59271 15.27747 37929 ft 446 kts 301°
2026-05-06 14:57 45.62937 15.20596 37925 ft 446 kts 301°
2026-05-06 14:57 45.66605 15.13426 37913 ft 446 kts 301°
2026-05-06 14:58 45.70259 15.06265 37917 ft 444 kts 301°
2026-05-06 14:58 45.73897 14.99111 37934 ft 446 kts 301°
2026-05-06 14:59 45.77546 14.91919 37928 ft 447 kts 301°
2026-05-06 14:59 45.81205 14.84693 37925 ft 448 kts 301°
2026-05-06 15:00 45.84833 14.77502 37933 ft 448 kts 301°
2026-05-06 15:00 45.88485 14.70244 37936 ft 449 kts 300°
2026-05-06 15:01 45.92135 14.62973 37931 ft 449 kts 300°
2026-05-06 15:01 45.95780 14.55694 37931 ft 449 kts 300°
2026-05-06 15:02 45.99427 14.48395 37941 ft 449 kts 300°
2026-05-06 15:02 46.03073 14.41079 37940 ft 451 kts 300°
2026-05-06 15:03 46.06723 14.33736 37947 ft 452 kts 300°
2026-05-06 15:03 46.10376 14.26371 37930 ft 452 kts 300°
2026-05-06 15:04 46.14023 14.19002 37940 ft 452 kts 300°
2026-05-06 15:04 46.17670 14.11612 37933 ft 452 kts 300°
2026-05-06 15:05 46.21381 14.04281 37914 ft 454 kts 302°
2026-05-06 15:05 46.25328 13.97139 37906 ft 455 kts 303°
2026-05-06 15:06 46.29292 13.90016 37917 ft 454 kts 303°
2026-05-06 15:06 46.33224 13.82860 37903 ft 454 kts 303°
2026-05-06 15:07 46.37142 13.75681 37899 ft 454 kts 303°
2026-05-06 15:07 46.41053 13.68501 37906 ft 453 kts 303°
2026-05-06 15:08 46.44949 13.61307 37894 ft 453 kts 302°
2026-05-06 15:08 46.48599 13.53908 37898 ft 450 kts 300°
2026-05-06 15:09 46.52190 13.46471 37892 ft 450 kts 300°
2026-05-06 15:09 46.55824 13.39058 37920 ft 450 kts 300°
2026-05-06 15:10 46.59342 13.31570 37880 ft 446 kts 297°
2026-05-06 15:10 46.62676 13.24000 37877 ft 444 kts 297°
2026-05-06 15:11 46.66005 13.16427 37890 ft 444 kts 297°
2026-05-06 15:11 46.69360 13.08845 37884 ft 445 kts 298°
2026-05-06 15:12 46.72726 13.01261 37871 ft 446 kts 297°
2026-05-06 15:12 46.76079 12.93690 37877 ft 445 kts 297°
2026-05-06 15:13 46.79431 12.86095 37863 ft 445 kts 297°
2026-05-06 15:13 46.82782 12.78481 37852 ft 446 kts 297°
2026-05-06 15:14 46.86109 12.70901 37863 ft 447 kts 297°
2026-05-06 15:14 46.89488 12.63181 37794 ft 447 kts 296°
2026-05-06 15:15 46.92801 12.55590 37897 ft 441 kts 297°
2026-05-06 15:15 46.96104 12.48002 37852 ft 447 kts 296°
2026-05-06 15:16 46.99452 12.40291 37851 ft 451 kts 297°
2026-05-06 15:16 47.02820 12.32513 37842 ft 453 kts 296°
2026-05-06 15:17 47.06194 12.24694 37813 ft 452 kts 296°
2026-05-06 15:17 47.08993 12.18195 37803 ft 455 kts 296°
2026-05-06 15:18 47.12372 12.10344 37762 ft 453 kts 296°
2026-05-06 15:18 47.15720 12.02528 37791 ft 451 kts 296°
2026-05-06 15:19 47.19040 11.94760 37766 ft 447 kts 296°
2026-05-06 15:19 47.22256 11.86982 37768 ft 443 kts 292°
2026-05-06 15:20 47.25103 11.78982 37779 ft 440 kts 291°
2026-05-06 15:20 47.27874 11.70931 37769 ft 441 kts 291°
2026-05-06 15:21 47.30675 11.62872 37767 ft 444 kts 291°
2026-05-06 15:21 47.33509 11.54780 37777 ft 445 kts 291°
2026-05-06 15:22 47.36348 11.46683 37820 ft 442 kts 291°
2026-05-06 15:22 47.39168 11.38607 37774 ft 444 kts 291°
2026-05-06 15:23 47.41994 11.30465 37756 ft 447 kts 291°
2026-05-06 15:23 47.44835 11.22281 37779 ft 449 kts 291°
2026-05-06 15:24 47.47686 11.14062 37775 ft 450 kts 291°
2026-05-06 15:24 47.50534 11.05810 37794 ft 451 kts 291°
2026-05-06 15:25 47.53378 10.97536 37804 ft 452 kts 291°
2026-05-06 15:25 47.56205 10.89286 37832 ft 453 kts 291°
2026-05-06 15:26 47.59075 10.80888 37806 ft 455 kts 291°
2026-05-06 15:26 47.61927 10.72517 37841 ft 455 kts 291°
2026-05-06 15:27 47.64777 10.64123 37856 ft 456 kts 291°
2026-05-06 15:27 47.67621 10.55724 37848 ft 456 kts 291°
2026-05-06 15:28 47.70446 10.47356 37865 ft 457 kts 291°
2026-05-06 15:28 47.73443 10.39019 37852 ft 464 kts 303°
2026-05-06 15:28 47.75760 10.35530 37886 ft 474 kts 318°
2026-05-06 15:29 47.78579 10.33029 37836 ft 485 kts 334°
2026-05-06 15:29 47.85059 10.30099 37812 ft 489 kts 340°
2026-05-06 15:30 47.91606 10.27332 37803 ft 489 kts 340°
2026-05-06 15:30 47.98140 10.24473 37804 ft 489 kts 339°
2026-05-06 15:31 48.04653 10.21556 37807 ft 489 kts 339°
2026-05-06 15:31 48.11153 10.18624 37826 ft 487 kts 339°
2026-05-06 15:32 48.20879 10.14230 37827 ft 486 kts 339°
2026-05-06 15:32 48.27343 10.11302 37825 ft 486 kts 339°
2026-05-06 15:33 48.33815 10.08364 37816 ft 486 kts 339°
2026-05-06 15:33 48.40281 10.05421 37811 ft 485 kts 339°
2026-05-06 15:34 48.46745 10.02472 37804 ft 485 kts 339°
2026-05-06 15:34 48.53210 9.99515 37791 ft 486 kts 339°
2026-05-06 15:35 48.59683 9.96549 37786 ft 486 kts 340°
2026-05-06 15:35 48.66154 9.93575 37807 ft 487 kts 339°
2026-05-06 15:36 48.72166 9.89220 37808 ft 476 kts 317°
2026-05-06 15:36 48.76576 9.81970 37807 ft 465 kts 300°
2026-05-06 15:37 48.80201 9.73832 37823 ft 466 kts 299°
2026-05-06 15:37 48.83831 9.65676 37828 ft 467 kts 300°
2026-05-06 15:38 48.87502 9.57528 37804 ft 468 kts 300°
2026-05-06 15:38 48.91194 9.49369 37808 ft 469 kts 300°
2026-05-06 15:39 48.94887 9.41194 37808 ft 468 kts 300°
2026-05-06 15:39 48.98568 9.33017 37803 ft 468 kts 300°
2026-05-06 15:40 49.02239 9.24835 37835 ft 468 kts 300°
2026-05-06 15:40 49.05912 9.16619 37803 ft 468 kts 300°
2026-05-06 15:41 49.09569 9.08416 37807 ft 468 kts 300°
2026-05-06 15:41 49.13220 9.00201 37787 ft 467 kts 300°
2026-05-06 15:42 49.16830 8.92056 37801 ft 466 kts 300°
2026-05-06 15:42 49.20454 8.83851 37805 ft 465 kts 300°
2026-05-06 15:43 49.24069 8.75640 37795 ft 465 kts 300°
2026-05-06 15:43 49.27683 8.67436 37786 ft 465 kts 301°
2026-05-06 15:44 49.31286 8.59221 37778 ft 465 kts 300°
2026-05-06 15:44 49.34877 8.50988 37778 ft 464 kts 300°
2026-05-06 15:45 49.38459 8.42749 37791 ft 464 kts 300°
2026-05-06 15:45 49.42037 8.34496 37792 ft 464 kts 300°
2026-05-06 15:46 49.45607 8.26237 37800 ft 464 kts 300°
2026-05-06 15:46 49.49175 8.17957 37792 ft 464 kts 300°
2026-05-06 15:47 49.52735 8.09670 37793 ft 465 kts 300°
2026-05-06 15:47 49.56312 8.01315 37763 ft 470 kts 300°
2026-05-06 15:48 49.59901 7.92909 37783 ft 469 kts 300°
2026-05-06 15:48 49.63474 7.84517 37786 ft 468 kts 300°
2026-05-06 15:49 49.67043 7.76105 37790 ft 468 kts 300°
2026-05-06 15:49 49.70604 7.67682 37806 ft 468 kts 300°
2026-05-06 15:50 49.74156 7.59255 37803 ft 469 kts 299°
2026-05-06 15:50 49.77709 7.50800 37795 ft 469 kts 299°
2026-05-06 15:51 49.81261 7.42321 37802 ft 470 kts 299°
2026-05-06 15:51 49.84812 7.33814 37784 ft 471 kts 299°
2026-05-06 15:52 49.88360 7.25290 37824 ft 470 kts 299°
2026-05-06 15:52 49.91898 7.16761 37811 ft 470 kts 299°
2026-05-06 15:53 49.95430 7.08221 37820 ft 469 kts 299°
2026-05-06 15:53 49.98945 6.99696 37834 ft 467 kts 299°
2026-05-06 15:54 50.02435 6.91199 37807 ft 466 kts 298°
2026-05-06 15:54 50.05666 6.82479 37831 ft 464 kts 295°
2026-05-06 15:55 50.08730 6.73649 37824 ft 464 kts 295°
2026-05-06 15:55 50.11826 6.64809 37825 ft 465 kts 295°
2026-05-06 15:56 50.14943 6.55979 37798 ft 465 kts 296°
2026-05-06 15:56 50.18048 6.47159 37805 ft 464 kts 295°
2026-05-06 15:57 50.21323 6.38469 37829 ft 465 kts 299°
2026-05-06 15:57 50.24794 6.29931 37837 ft 465 kts 299°
2026-05-06 15:58 50.28230 6.21449 37848 ft 465 kts 299°
2026-05-06 15:58 50.31648 6.12889 37851 ft 464 kts 299°
2026-05-06 15:59 50.35049 6.04307 37861 ft 464 kts 298°
2026-05-06 15:59 50.38438 5.95722 37875 ft 463 kts 299°
2026-05-06 16:00 50.41818 5.87138 37878 ft 463 kts 299°
2026-05-06 16:00 50.45194 5.78538 37875 ft 462 kts 299°
2026-05-06 16:01 50.48556 5.69947 37887 ft 462 kts 299°
2026-05-06 16:01 50.51941 5.61351 37888 ft 463 kts 301°
2026-05-06 16:02 50.55036 5.54453 37893 ft 465 kts 304°
2026-05-06 16:02 50.58887 5.46268 37889 ft 465 kts 304°
2026-05-06 16:03 50.62722 5.38062 37888 ft 465 kts 303°
2026-05-06 16:03 50.66529 5.29802 37884 ft 466 kts 303°
2026-05-06 16:04 50.70311 5.21533 37879 ft 465 kts 303°
2026-05-06 16:04 50.74093 5.13236 37902 ft 466 kts 303°
2026-05-06 16:05 50.77873 5.04918 37888 ft 466 kts 303°
2026-05-06 16:05 50.81643 4.96598 37877 ft 465 kts 303°
2026-05-06 16:06 50.85398 4.88285 37876 ft 464 kts 303°
2026-05-06 16:06 50.89144 4.79967 37881 ft 463 kts 303°
2026-05-06 16:07 50.92873 4.71658 37880 ft 463 kts 303°
2026-05-06 16:07 50.96599 4.63328 37886 ft 463 kts 303°
2026-05-06 16:08 51.00319 4.54989 37881 ft 462 kts 303°
2026-05-06 16:08 51.04023 4.46656 37879 ft 462 kts 303°
2026-05-06 16:09 51.07720 4.38316 37904 ft 461 kts 303°
2026-05-06 16:09 51.11376 4.30040 37909 ft 461 kts 303°
2026-05-06 16:10 51.15056 4.21687 37905 ft 460 kts 303°
2026-05-06 16:10 51.18547 4.13162 37805 ft 454 kts 298°
2026-05-06 16:11 51.21596 4.04489 37718 ft 449 kts 297°
2026-05-06 16:11 51.24662 3.95711 37732 ft 456 kts 297°
2026-05-06 16:12 51.27816 3.86841 37750 ft 461 kts 297°
2026-05-06 16:12 51.31006 3.77903 37432 ft 465 kts 298°
2026-05-06 16:13 51.32591 3.73448 37162 ft 461 kts 297°
2026-05-06 16:13 51.34169 3.68993 36737 ft 460 kts 297°
2026-05-06 16:13 51.35581 3.64426 36331 ft 455 kts 289°
2026-05-06 16:13 51.36516 3.59631 35998 ft 450 kts 283°
2026-05-06 16:14 51.37331 3.54801 35568 ft 449 kts 283°
2026-05-06 16:14 51.38135 3.49970 35156 ft 449 kts 283°
2026-05-06 16:14 51.38947 3.45150 34730 ft 450 kts 284°
2026-05-06 16:14 51.39774 3.40314 34334 ft 450 kts 284°
2026-05-06 16:15 51.40611 3.35482 33911 ft 450 kts 284°
2026-05-06 16:15 51.41452 3.30651 33423 ft 449 kts 284°
2026-05-06 16:15 51.42288 3.25837 32995 ft 448 kts 284°
2026-05-06 16:15 51.43120 3.21037 32567 ft 449 kts 284°
2026-05-06 16:16 51.43955 3.16204 32154 ft 452 kts 284°
2026-05-06 16:16 51.44796 3.11306 31721 ft 458 kts 284°
2026-05-06 16:16 51.45633 3.06354 31291 ft 462 kts 284°
2026-05-06 16:16 51.46455 3.01391 30843 ft 459 kts 284°
2026-05-06 16:17 51.47264 2.96447 30414 ft 456 kts 283°
2026-05-06 16:17 51.48066 2.91537 29997 ft 455 kts 283°
2026-05-06 16:17 51.48869 2.86621 29519 ft 458 kts 283°
2026-05-06 16:17 51.49678 2.81662 29083 ft 461 kts 283°
2026-05-06 16:18 51.50490 2.76674 28637 ft 463 kts 283°
2026-05-06 16:18 51.51305 2.71663 28173 ft 465 kts 283°
2026-05-06 16:18 51.52111 2.66698 27734 ft 466 kts 283°
2026-05-06 16:18 51.52926 2.61663 27292 ft 465 kts 283°
2026-05-06 16:19 51.53735 2.56642 26834 ft 465 kts 283°
2026-05-06 16:19 51.54545 2.51598 26377 ft 466 kts 283°
2026-05-06 16:19 51.55461 2.46603 25921 ft 467 kts 288°
2026-05-06 16:19 51.56600 2.41701 25483 ft 468 kts 290°
2026-05-06 16:20 51.57768 2.36811 25031 ft 468 kts 289°
2026-05-06 16:20 51.58914 2.31916 24664 ft 466 kts 289°
2026-05-06 16:20 51.60043 2.27054 24166 ft 463 kts 290°
2026-05-06 16:20 51.61467 2.22432 23152 ft 462 kts 299°
2026-05-06 16:21 51.62985 2.17953 21866 ft 450 kts 294°
2026-05-06 16:21 51.64184 2.13358 20606 ft 441 kts 290°
2026-05-06 16:21 51.65234 2.08820 19879 ft 423 kts 289°
2026-05-06 16:21 51.66226 2.04474 19639 ft 406 kts 289°
2026-05-06 16:22 51.67216 2.00230 19396 ft 410 kts 290°
2026-05-06 16:22 51.68262 1.95865 19157 ft 423 kts 290°
2026-05-06 16:22 51.69353 1.91416 18937 ft 428 kts 291°
2026-05-06 16:22 51.70455 1.86991 18687 ft 424 kts 291°
2026-05-06 16:23 51.71558 1.82601 18444 ft 421 kts 291°
2026-05-06 16:23 51.72656 1.78237 18205 ft 419 kts 291°
2026-05-06 16:23 51.73751 1.73886 17933 ft 418 kts 291°
2026-05-06 16:23 51.74839 1.69552 17661 ft 417 kts 291°
2026-05-06 16:24 51.75924 1.65219 17384 ft 416 kts 291°
2026-05-06 16:24 51.77004 1.60897 17053 ft 414 kts 291°
2026-05-06 16:24 51.78077 1.56592 16693 ft 412 kts 291°
2026-05-06 16:24 51.79141 1.52316 16275 ft 408 kts 291°
2026-05-06 16:25 51.80196 1.48064 15871 ft 406 kts 291°
2026-05-06 16:25 51.81239 1.43856 15453 ft 402 kts 291°
2026-05-06 16:25 51.82271 1.39679 15047 ft 398 kts 291°
2026-05-06 16:25 51.83289 1.35554 14657 ft 396 kts 291°
2026-05-06 16:26 51.84301 1.31447 14256 ft 392 kts 291°
2026-05-06 16:26 51.85306 1.27360 13854 ft 389 kts 291°
2026-05-06 16:26 51.86301 1.23301 13432 ft 387 kts 291°
2026-05-06 16:26 51.87279 1.19310 13008 ft 385 kts 291°
2026-05-06 16:27 51.88273 1.15244 12620 ft 382 kts 291°
2026-05-06 16:27 51.89249 1.11247 12227 ft 381 kts 291°
2026-05-06 16:27 51.90205 1.07325 11830 ft 379 kts 291°
2026-05-06 16:27 51.91169 1.03359 11449 ft 378 kts 291°
2026-05-06 16:28 51.92130 0.99400 11044 ft 378 kts 291°
2026-05-06 16:28 51.93087 0.95452 10665 ft 373 kts 291°
2026-05-06 16:28 51.94024 0.91576 10291 ft 368 kts 291°